Regional Weather Roundup
Issued by NWS

Home | Current Version | Previous Version | Text Only | Print | Product List | Glossary Off
Versions: 1 2 3 4 5 6 7 8 9 10 11 12 13 14 15 16 17 18 19 20 21 22 23 24 25 26 27 28 29 30 31 32 33 34 35 36 37 38 39 40 41 42 43 44 45 46 47 48 49 50

000
ASUS45 KTFX 221810
RWRMT
MONTANA REGIONAL WEATHER ROUNDUP
NATIONAL WEATHER SERVICE GREAT FALLS MT
1200 PM MDT MON MAY 22 2017

NOTE: "FAIR" INDICATES FEW OR NO CLOUDS BELOW 12000 FEET WITH NO
SIGNIFICANT WEATHER AND/OR OBSTRUCTIONS TO VISIBILITY.

MTZ001>007-043-221900-
WEST OF THE DIVIDE

CITY           SKY/WX    TMP DP  RH WIND       PRES   REMARKS
KALISPELL      SUNNY     68  44  42 E5        30.20F
MISSOULA       SUNNY     66  44  45 VRB3      30.23F
BUTTE          PTSUNNY   64  33  31 NW8       30.27F
MULLAN PASS    SUNNY     60  36  40 N3        30.32S
ANACONDA         N/A     63  34  34 SE3       30.25F
DEER LODGE       N/A     63  41  45 NE5       30.27F
EUREKA           N/A     66  43  42 NW3       30.21F
HAMILTON         N/A     66  43  42 CALM      30.23F
LIBBY            N/A     68  45  42 CALM      30.18F
PLAINS           N/A     69  48  46 CALM      30.19F
RONAN            N/A     69  43  39 SW2       30.24F
$$

MTZ008-052>055-221900-
SOUTHWEST MONTANA

CITY           SKY/WX    TMP DP  RH WIND       PRES   REMARKS
BOZEMAN        SUNNY     62  40  44 W3        30.24F
DILLON         SUNNY     64  35  34 VRB3      30.25F
ENNIS          MOSUNNY   63  37  39 NW14      30.30S
THREE FORKS      N/A     67  43  41 E7        30.20F
TWIN BRIDGES     N/A     65  35  32 S1        30.20F
$$

MTZ009-010-012-014-046-048-049-054-221900-
EAST SLOPES AND CENTRAL MONTANA

CITY           SKY/WX    TMP DP  RH WIND       PRES   REMARKS
CUT BANK       PTSUNNY   67  35  30 E9        30.21F
GREAT FALLS    CLOUDY    64  37  36 NE3       30.23F
HELENA         SUNNY     70  36  28 N7        30.21F
AUGUSTA          N/A     64  39  39 E8        30.24S
BOWMANS CRNR     N/A     62  37  38 E13G21    30.22F
CHOTEAU          N/A     66  37  34 S5        30.25S
CONRAD           N/A     69  49  48 N3        30.22R
FAIRFIELD        N/A     65  34  31 S7        30.22F
POWER          PTSUNNY   64  33  32 N10       30.22F
RAYNESFORD     CLOUDY    58  39  49 SW3       30.25F
ULM              N/A     64  40  40 E9        30.23F
$$

MTZ011-013-016-021-045-047-050-051-221900-
NORTH CENTRAL MONTANA

CITY           SKY/WX    TMP DP  RH WIND       PRES   REMARKS
HAVRE          SUNNY     69  37  30 NE10G17   30.17S
LEWISTOWN      PTSUNNY   59  36  42 N17G24    30.20S
N BAR RANCH      N/A     59  39  47 NE14G22   30.22S
CHINOOK          N/A     66  36  32 N13G18    30.17S
DENTON         PTSUNNY   62  37  40 NW16G28   30.16F
FORT BENTON      N/A    N/A N/A N/A MISG      30.19F
GEYSER         PTSUNNY   59  38  46 W17G23    30.22F
JUDITH GAP       N/A     58  37  46 NW30G38   30.21F
STANFORD         N/A     59  43  54 W22G29    30.23F
WINIFRED         N/A     67  35  30 N18G30    30.18S
$$

MTZ017>020-022>027-061-062-221900-
NORTHEAST MONTANA

CITY           SKY/WX    TMP DP  RH WIND       PRES   REMARKS
GLASGOW        PTSUNNY   64  38  38 N17G24    30.12F
JORDAN           N/A     63  35  35 N16G26    30.13S
SIDNEY         PTSUNNY   62  38  40 E10       30.05F
WOLF POINT     SUNNY     66  38  35 N17       30.08F
MALTA          SUNNY     66  36  32 N14G23    30.15S
PLENTYWOOD       N/A     63  30  29 N18       30.06S
POPLAR           N/A     63  39  42 N13G22    30.08S
SCOBEY           N/A     62  37  39 N13       30.08S
$$

MTZ028>42-056>058-221900-
SOUTHCENTRAL AND SOUTHEAST MONTANA

CITY           SKY/WX    TMP DP  RH WIND       PRES   REMARKS
BAKER          MOSUNNY   57  41  55 N17       30.07R
BILLINGS       LGT RAIN  58  41  53 NE9G26    30.19R
LIVINGSTON     CLOUDY    54  41  61 E21G30    30.25R
MILES CITY     PTSUNNY   64  36  35 N15G33    30.10S
BIG TIMBER     CLOUDY    54  39  58 NW6       30.30R
EKALAKA          N/A     53  40  61 N17       30.05R
FORSYTH          N/A     61  37  41 NW16G22   30.13S
LAUREL           N/A     63  40  42 W16       30.16F
ROUNDUP          N/A     64  36  35 NW13      30.08F
$$

REGIONAL REPORTS...DAKOTAS

CITY           SKY/WX    TMP DP  RH WIND       PRES   REMARKS
WILLISTON      CLOUDY    62  36  37 NE9       30.05S
MINOT          CLOUDY    59  37  44 N18G28    29.99S
DICKINSON      CLOUDY    57  33  40 N14       30.00R
BEACH            N/A     57  41  54 N9G17     30.09S
TIOGA          CLOUDY    59  32  36 N17       30.05S
WATFORD CITY     N/A     63  34  34 N17       30.03F
BISMARCK       CLOUDY    61  34  36 N14G23    29.97S
GRAND FORKS    CLOUDY    54  45  71 N16       29.85S
FARGO          PTSUNNY   57  41  55 NW17G28   29.85R
BUFFALO SD       N/A     51  43  74 N21G35    29.97R
RAPID CITY     LGT RAIN  53  43  68 NW22G30   30.02R
$$

REGIONAL REPORTS...WYOMING/IDAHO/WASHINGTON

CITY           SKY/WX    TMP DP  RH WIND       PRES   REMARKS
GILLETTE       LGT RAIN  44  42  93 NW14      30.16R
SHERIDAN       CLOUDY    47  43  86 N12       30.21R
BUFFALO WY     LGT RAIN  43  39  86 N23G36    30.21R
CODY           LGT RAIN  45  41  86 N17G23    30.28R
YELLOWSTONE LA   N/A     53  27  36 MISG      30.31S
IDAHO FALLS    MOSUNNY   65  37  35 S6        30.26F
SALMON         SUNNY     63  37  39 W5        30.23F
BOISE          SUNNY     71  46  40 CALM      30.20F
SPOKANE        MOSUNNY   73  47  39 CALM      30.20S
$$

REGIONAL REPORTS...ALBERTA

CITY           SKY/WX    TMP DP  RH WIND       PRES   REMARKS
EDMONTON       SUNNY     68  45  42 W5        30.12F
CALGARY        MOSUNNY   70  32  24 E7        30.21F
LETHBRIDGE     MOSUNNY   68  37  32 VRB3      30.19S
MEDICINE HAT   PTSUNNY   66  41  39 NE8       30.19S
WATERTON GATE    N/A     68  34  28 NE8         N/A
CARDSTON         N/A     68  34  28 NW6         N/A
MILK RIVER       N/A     70  39  32 W5          N/A
ONEFOUR          N/A     68  32  26 N18G26      N/A
$$

REGIONAL REPORTS...SASKATCHEWAN

CITY           SKY/WX    TMP DP  RH WIND       PRES   REMARKS
SWIFT CURRENT  MOSUNNY   64  37  36 NE14G23   30.16F
REGINA         MOSUNNY   63  34  34 NE12G24   30.09S
SASKATOON      MOSUNNY   68  36  30 NE9G20    30.18S
CYPRESS HILLS    N/A     55  32  41 NE8         N/A
VAL MARIE        N/A     63  36  36 N15G23      N/A
ROCKGLEN         N/A     61  37  41 N12G20      N/A
ASSINIBOIA       N/A     68  37  32 S12G17      N/A
$$



USA.gov is the U.S. government's official web portal to all federal, state and local government web resources and services.